Location: Home
(42.5358°N, 72.7383°W)
Time: 04:45:31
(UTC-04:00)

Vanguard 1 - Pass Details

Date: 04 June 2022
Orbit: 649 x 3832 km, 34.2° (Epoch: 24 June)

Event Time Altitude Azimuth Distance (km) Brightness Sun altitude
Rises 21:18:18 0° 185° (S) 3,586 12.6 -8.8°
Reaches altitude 10° 21:22:06 10° 159° (SSE) 3,056 12.0 -9.3°
Maximum altitude 21:25:42 14° 130° (SE) 3,185 12.0 -9.8°
Drops below altitude 10° 21:30:12 10° 103° (ESE) 4,029 12.7 -10.4°
Sets 21:36:53 0° 83° (E) 5,812 13.7 -11.3°
